Time,TemperatureF,DewpointF,PressureIn,WindDirection,WindDirectionDegrees,WindSpeedMPH,WindSpeedGustMPH,Humidity,HourlyPrecipIn,Conditions,Clouds,dailyrainin,SoftwareType,DateUTC
2013-05-03 00:23:00,49.0,-99.9,30.32,SE,133,-999.0,-999.0,-999,-99.99,,,-99.99,,2013-05-03 04:23:00,
2013-05-03 00:33:00,49.0,-99.9,30.32,SE,133,-999.0,-999.0,-999,-99.99,,,-99.99,,2013-05-03 04:33:00,
2013-05-03 00:43:00,49.0,-99.9,30.32,SE,133,-999.0,-999.0,-999,-99.99,,,-99.99,,2013-05-03 04:43:00,
2013-05-03 00:52:00,48.0,-99.9,30.33,SE,133,-999.0,-999.0,-999,-99.99,,,-99.99,,2013-05-03 04:52:00,
2013-05-03 01:22:00,48.0,-99.9,30.33,SE,133,-999.0,-999.0,-999,-99.99,,,-99.99,,2013-05-03 05:22:00,
2013-05-03 01:32:00,48.0,-99.9,30.33,SE,133,-999.0,-999.0,-999,-99.99,,,-99.99,,2013-05-03 05:32:00,
2013-05-03 01:42:00,48.0,-99.9,30.33,SE,133,-999.0,-999.0,-999,-99.99,,,-99.99,,2013-05-03 05:42:00,
2013-05-03 01:52:00,48.0,-99.9,30.33,East,92,-999.0,-999.0,-999,-99.99,,,-99.99,,2013-05-03 05:52:00,
2013-05-03 02:22:00,48.0,-99.9,30.33,East,92,-999.0,-999.0,-999,-99.99,,,-99.99,,2013-05-03 06:22:00,
2013-05-03 02:32:00,48.0,-99.9,30.33,East,92,-999.0,-999.0,-999,-99.99,,,-99.99,,2013-05-03 06:32:00,
2013-05-03 02:42:00,48.0,-99.9,30.33,East,92,-999.0,-999.0,-999,-99.99,,,-99.99,,2013-05-03 06:42:00,
2013-05-03 03:52:00,45.0,-99.9,30.34,NE,50,-999.0,-999.0,-999,-99.99,,,-99.99,,2013-05-03 07:52:00,
2013-05-03 04:32:00,45.0,-99.9,30.34,NE,50,-999.0,-999.0,-999,-99.99,,,-99.99,,2013-05-03 08:32:00,
2013-05-03 04:42:00,45.0,-99.9,30.34,NE,50,-999.0,-999.0,-999,-99.99,,,-99.99,,2013-05-03 08:42:00,
2013-05-03 04:52:00,47.0,-99.9,30.34,NE,50,-999.0,-999.0,-999,-99.99,,,-99.99,,2013-05-03 08:52:00,
2013-05-03 05:22:00,47.0,-99.9,30.34,NE,50,-999.0,-999.0,-999,-99.99,,,-99.99,,2013-05-03 09:22:00,
2013-05-03 05:33:00,47.0,-99.9,30.34,NE,50,-999.0,-999.0,-999,-99.99,,,-99.99,,2013-05-03 09:33:00,
2013-05-03 05:43:00,47.0,-99.9,30.34,NE,50,-999.0,-999.0,-999,-99.99,,,-99.99,,2013-05-03 09:43:00,
2013-05-03 05:52:00,48.0,-99.9,30.35,ESE,116,-999.0,-999.0,-999,-99.99,,,-99.99,,2013-05-03 09:52:00,
2013-05-03 06:22:00,48.0,-99.9,30.35,ESE,116,-999.0,-999.0,-999,-99.99,,,-99.99,,2013-05-03 10:22:00,
2013-05-03 06:32:00,48.0,-99.9,30.35,ESE,116,-999.0,-999.0,-999,-99.99,,,-99.99,,2013-05-03 10:32:00,
2013-05-03 06:42:00,48.0,-99.9,30.35,ESE,116,-999.0,-999.0,-999,-99.99,,,-99.99,,2013-05-03 10:42:00,
2013-05-03 06:52:00,51.0,-99.9,30.36,North,-999,-999.0,10.0,-999,-99.99,,,-99.99,,2013-05-03 10:52:00,
2013-05-03 07:22:00,51.0,-99.9,30.36,North,-999,-999.0,10.0,-999,-99.99,,,-99.99,,2013-05-03 11:22:00,
2013-05-03 07:32:00,51.0,-99.9,30.36,North,-999,-999.0,10.0,-999,-99.99,,,-99.99,,2013-05-03 11:32:00,
2013-05-03 07:42:00,51.0,-99.9,30.36,North,-999,-999.0,10.0,-999,-99.99,,,-99.99,,2013-05-03 11:42:00,
2013-05-03 07:52:00,53.0,-99.9,30.37,North,-999,8.0,-999.0,-999,-99.99,,,-99.99,,2013-05-03 11:52:00,
2013-05-03 08:22:00,53.0,-99.9,30.37,North,-999,8.0,-999.0,-999,-99.99,,,-99.99,,2013-05-03 12:22:00,
2013-05-03 08:32:00,53.0,-99.9,30.37,North,-999,8.0,-999.0,-999,-99.99,,,-99.99,,2013-05-03 12:32:00,
2013-05-03 08:42:00,53.0,-99.9,30.37,North,-999,8.0,-999.0,-999,-99.99,,,-99.99,,2013-05-03 12:42:00,
2013-05-03 08:52:00,53.0,-99.9,30.39,North,-999,-999.0,15.0,-999,-99.99,,,-99.99,,2013-05-03 12:52:00,
2013-05-03 09:22:00,53.0,-99.9,30.39,North,-999,-999.0,15.0,-999,-99.99,,,-99.99,,2013-05-03 13:22:00,
2013-05-03 09:32:00,53.0,-99.9,30.39,North,-999,-999.0,15.0,-999,-99.99,,,-99.99,,2013-05-03 13:32:00,
2013-05-03 09:42:00,53.0,-99.9,30.39,North,-999,-999.0,15.0,-999,-99.99,,,-99.99,,2013-05-03 13:42:00,
2013-05-03 09:52:00,55.0,-99.9,30.39,North,-999,-999.0,13.0,-999,-99.99,,,-99.99,,2013-05-03 13:52:00,
2013-05-03 10:22:00,55.0,-99.9,30.39,North,-999,-999.0,13.0,-999,-99.99,,,-99.99,,2013-05-03 14:22:00,
2013-05-03 10:32:00,55.0,-99.9,30.39,North,-999,-999.0,13.0,-999,-99.99,,,-99.99,,2013-05-03 14:32:00,
2013-05-03 10:42:00,55.0,-99.9,30.39,North,-999,-999.0,13.0,-999,-99.99,,,-99.99,,2013-05-03 14:42:00,
2013-05-03 10:52:00,57.0,-99.9,30.39,North,-999,-999.0,7.0,-999,-99.99,,,-99.99,,2013-05-03 14:52:00,
2013-05-03 11:22:00,57.0,-99.9,30.39,North,-999,-999.0,7.0,-999,-99.99,,,-99.99,,2013-05-03 15:22:00,
2013-05-03 11:32:00,57.0,-99.9,30.39,North,-999,-999.0,7.0,-999,-99.99,,,-99.99,,2013-05-03 15:32:00,
2013-05-03 11:43:00,57.0,-99.9,30.39,North,-999,-999.0,7.0,-999,-99.99,,,-99.99,,2013-05-03 15:43:00,
2013-05-03 11:52:00,56.0,-99.9,30.40,North,-999,-999.0,-999.0,-999,-99.99,,,-99.99,,2013-05-03 15:52:00,
2013-05-03 12:23:00,56.0,-99.9,30.40,North,-999,-999.0,-999.0,-999,-99.99,,,-99.99,,2013-05-03 16:23:00,
2013-05-03 12:33:00,56.0,-99.9,30.40,North,-999,-999.0,-999.0,-999,-99.99,,,-99.99,,2013-05-03 16:33:00,
2013-05-03 12:42:00,56.0,-99.9,30.40,North,-999,-999.0,-999.0,-999,-99.99,,,-99.99,,2013-05-03 16:42:00,
2013-05-03 12:52:00,57.0,-99.9,30.39,North,-999,-999.0,-999.0,-999,-99.99,,,-99.99,,2013-05-03 16:52:00,
2013-05-03 13:23:00,57.0,-99.9,30.39,North,-999,-999.0,-999.0,-999,-99.99,,,-99.99,,2013-05-03 17:23:00,
2013-05-03 13:32:00,57.0,-99.9,30.39,North,-999,-999.0,-999.0,-999,-99.99,,,-99.99,,2013-05-03 17:32:00,
2013-05-03 13:42:00,57.0,-99.9,30.39,North,-999,-999.0,-999.0,-999,-99.99,,,-99.99,,2013-05-03 17:42:00,
2013-05-03 13:52:00,57.0,-99.9,30.38,North,-999,-999.0,-999.0,-999,-99.99,,,-99.99,,2013-05-03 17:52:00,
2013-05-03 14:22:00,57.0,-99.9,30.38,North,-999,-999.0,-999.0,-999,-99.99,,,-99.99,,2013-05-03 18:22:00,
2013-05-03 14:32:00,57.0,-99.9,30.38,North,-999,-999.0,-999.0,-999,-99.99,,,-99.99,,2013-05-03 18:32:00,
2013-05-03 14:42:00,57.0,-99.9,30.38,North,-999,-999.0,-999.0,-999,-99.99,,,-99.99,,2013-05-03 18:42:00,
2013-05-03 14:52:00,57.0,-99.9,30.37,North,-999,-999.0,2.0,-999,-99.99,,,-99.99,,2013-05-03 18:52:00,
2013-05-03 15:22:00,57.0,-99.9,30.37,North,-999,-999.0,2.0,-999,-99.99,,,-99.99,,2013-05-03 19:22:00,
2013-05-03 15:32:00,57.0,-99.9,30.37,North,-999,-999.0,2.0,-999,-99.99,,,-99.99,,2013-05-03 19:32:00,
2013-05-03 15:42:00,57.0,-99.9,30.37,North,-999,-999.0,2.0,-999,-99.99,,,-99.99,,2013-05-03 19:42:00,
2013-05-03 15:52:00,57.0,-99.9,30.36,North,-999,-999.0,-999.0,-999,-99.99,,,-99.99,,2013-05-03 19:52:00,
2013-05-03 16:22:00,57.0,-99.9,30.36,North,-999,-999.0,-999.0,-999,-99.99,,,-99.99,,2013-05-03 20:22:00,
2013-05-03 16:32:00,57.0,-99.9,30.36,North,-999,-999.0,-999.0,-999,-99.99,,,-99.99,,2013-05-03 20:32:00,
2013-05-03 16:42:00,57.0,-99.9,30.36,North,-999,-999.0,-999.0,-999,-99.99,,,-99.99,,2013-05-03 20:42:00,
2013-05-03 17:52:00,54.0,-99.9,30.36,North,-999,-999.0,-999.0,-999,-99.99,,,-99.99,,2013-05-03 21:52:00,
2013-05-03 18:32:00,54.0,-99.9,30.36,North,-999,-999.0,-999.0,-999,-99.99,,,-99.99,,2013-05-03 22:32:00,
2013-05-03 18:42:00,54.0,-99.9,30.36,North,-999,-999.0,-999.0,-999,-99.99,,,-99.99,,2013-05-03 22:42:00,
2013-05-03 18:52:00,53.0,-99.9,30.35,East,94,-999.0,-999.0,-999,-99.99,,,-99.99,,2013-05-03 22:52:00,
2013-05-03 19:32:00,53.0,-99.9,30.35,East,94,-999.0,-999.0,-999,-99.99,,,-99.99,,2013-05-03 23:32:00,
2013-05-03 19:41:00,53.0,-99.9,30.35,East,94,-999.0,-999.0,-999,-99.99,,,-99.99,,2013-05-03 23:41:00,
2013-05-03 19:52:00,51.0,-99.9,30.35,North,-999,-999.0,7.0,-999,-99.99,,,-99.99,,2013-05-03 23:52:00,
2013-05-03 20:23:00,51.0,-99.9,30.35,North,-999,-999.0,7.0,-999,-99.99,,,-99.99,,2013-05-04 00:23:00,
2013-05-03 20:32:00,51.0,-99.9,30.35,North,-999,-999.0,7.0,-999,-99.99,,,-99.99,,2013-05-04 00:32:00,
2013-05-03 20:42:00,51.0,-99.9,30.35,North,-999,-999.0,7.0,-999,-99.99,,,-99.99,,2013-05-04 00:42:00,
2013-05-03 21:52:00,50.0,-99.9,30.37,North,-999,-999.0,-999.0,-999,-99.99,,,-99.99,,2013-05-04 01:52:00,
2013-05-03 22:22:00,50.0,-99.9,30.37,North,-999,-999.0,-999.0,-999,-99.99,,,-99.99,,2013-05-04 02:22:00,
2013-05-03 22:32:00,50.0,-99.9,30.37,North,-999,-999.0,-999.0,-999,-99.99,,,-99.99,,2013-05-04 02:32:00,
2013-05-03 22:42:00,50.0,-99.9,30.37,North,-999,-999.0,-999.0,-999,-99.99,,,-99.99,,2013-05-04 02:42:00,
2013-05-03 22:52:00,49.0,-99.9,30.35,North,-999,-999.0,-999.0,-999,-99.99,,,-99.99,,2013-05-04 02:52:00,
2013-05-03 23:22:00,49.0,-99.9,30.35,North,-999,-999.0,-999.0,-999,-99.99,,,-99.99,,2013-05-04 03:22:00,
2013-05-03 23:33:00,49.0,-99.9,30.35,North,-999,-999.0,-999.0,-999,-99.99,,,-99.99,,2013-05-04 03:33:00,
2013-05-03 23:43:00,49.0,-99.9,30.35,North,-999,-999.0,-999.0,-999,-99.99,,,-99.99,,2013-05-04 03:43:00,
2013-05-03 23:52:00,49.0,-99.9,30.35,North,-999,-999.0,-999.0,-999,-99.99,,,-99.99,,2013-05-04 03:52:00,